When you browse on this site, cookies collect data to enhance your experience and personalize the content and advertising you see.
Visit our Privacy Policy to learn more. By continuing to use the site, you agree to this use of cookies and data.
  • Em Portugal
  • Lista de países
  • Para 7 dias
  • Temperatura da água
  • Mapas de satélite
  • Mapa do tempo
  • Widgets de tempo
  • user-avatar
    Iniciar Sessão

    Previsão horária em Newcastle

    Hoje, 16 Dezembro, Domingo

    Tempo Temperatura Precipitação Vento Pressão Humidade
    00:00 +23°C° 0 mm 6 m/s 754 mmHg 89%
    01:00 +23°C° 0 mm 6 m/s 754 mmHg 89%
    02:00 +23°C° 0 mm 6 m/s 754 mmHg 90%
    03:00 +22°C° 0 mm 5 m/s 755 mmHg 91%
    04:00 +21°C° 0 mm 4 m/s 754 mmHg 91%
    05:00 +23°C° 0 mm 4 m/s 755 mmHg 85%
    06:00 +25°C° 0 mm 4 m/s 755 mmHg 79%
    07:00 +26°C° 0 mm 4 m/s 755 mmHg 73%
    08:00 +29°C° 0 mm 4 m/s 755 mmHg 62%
    09:00 +33°C° 0 mm 5 m/s 755 mmHg 51%
    10:00 +35°C° 0 mm 5 m/s 755 mmHg 47%
    11:00 +35°C° 0.2 mm 6 m/s 755 mmHg 47%
    12:00 +35°C° 0.2 mm 6 m/s 755 mmHg 47%
    13:00 +35°C° 0.2 mm 7 m/s 754 mmHg 47%
    14:00 +34°C° 0.2 mm 7 m/s 754 mmHg 53%
    15:00 +33°C° 0.2 mm 8 m/s 754 mmHg 59%
    16:00 +29°C° 0 mm 10 m/s 753 mmHg 73%
    17:00 +28°C° 0.7 mm 9 m/s 754 mmHg 75%
    18:00 +27°C° 0.7 mm 8 m/s 754 mmHg 78%
    19:00 +26°C° 0.7 mm 7 m/s 754 mmHg 80%
    20:00 +26°C° 0.2 mm 7 m/s 755 mmHg 81%
    21:00 +24°C° 0.2 mm 7 m/s 755 mmHg 83%
    22:00 +24°C° 0.2 mm 6 m/s 755 mmHg 84%
    23:00 +23°C° 0.2 mm 6 m/s 755 mmHg 85%

    Amanhã, 17 Dezembro, Segunda-feira

    Tempo Temperatura Precipitação Vento Pressão Humidade
    00:00 +23°C° 0.2 mm 5 m/s 755 mmHg 87%
    01:00 +22°C° 0.2 mm 4 m/s 755 mmHg 88%
    02:00 +22°C° 0 mm 4 m/s 755 mmHg 89%
    03:00 +22°C° 0 mm 4 m/s 755 mmHg 90%
    04:00 +21°C° 0 mm 3 m/s 755 mmHg 92%
    05:00 +24°C° 0 mm 3 m/s 755 mmHg 86%
    06:00 +25°C° 0 mm 3 m/s 755 mmHg 80%
    07:00 +27°C° 0 mm 2 m/s 756 mmHg 74%
    08:00 +29°C° 0 mm 2 m/s 756 mmHg 65%
    09:00 +32°C° 0 mm 2 m/s 756 mmHg 56%
    10:00 +35°C° 0 mm 2 m/s 756 mmHg 47%
    11:00 +35°C° 0.3 mm 3 m/s 755 mmHg 50%
    12:00 +34°C° 0.3 mm 3 m/s 755 mmHg 54%
    13:00 +33°C° 0.3 mm 4 m/s 755 mmHg 57%
    14:00 +34°C° 0 mm 4 m/s 755 mmHg 56%
    15:00 +34°C° 0 mm 4 m/s 755 mmHg 54%
    16:00 +34°C° 0 mm 5 m/s 755 mmHg 52%
    17:00 +32°C° 0 mm 5 m/s 755 mmHg 60%
    18:00 +29°C° 0 mm 5 m/s 756 mmHg 67%
    19:00 +27°C° 0 mm 5 m/s 756 mmHg 75%
    20:00 +26°C° 0 mm 4 m/s 757 mmHg 80%
    21:00 +25°C° 0 mm 4 m/s 757 mmHg 85%
    22:00 +24°C° 0 mm 3 m/s 758 mmHg 90%
    23:00 +24°C° 0 mm 3 m/s 757 mmHg 92%

    Depois de amanhã, 18 Dezembro, Terça-feira

    Tempo Temperatura Precipitação Vento Pressão Humidade
    00:00 +22°C° 0 mm 3 m/s 757 mmHg 94%
    01:00 +23°C° 0 mm 2 m/s 757 mmHg 96%
    02:00 +23°C° 0 mm 2 m/s 757 mmHg 97%
    03:00 +21°C° 0 mm 2 m/s 757 mmHg 97%
    04:00 +22°C° 0 mm 1 m/s 757 mmHg 98%
    05:00 +23°C° 0 mm 1 m/s 758 mmHg 95%
    06:00 +24°C° 0 mm 2 m/s 758 mmHg 92%
    07:00 +25°C° 0 mm 2 m/s 759 mmHg 89%
    08:00 +25°C° 0 mm 2 m/s 759 mmHg 85%
    09:00 +26°C° 0 mm 3 m/s 759 mmHg 82%
    10:00 +26°C° 0 mm 3 m/s 759 mmHg 79%
    11:00 +28°C° 0 mm 3 m/s 759 mmHg 73%
    12:00 +29°C° 0 mm 3 m/s 758 mmHg 67%
    13:00 +30°C° 0 mm 4 m/s 758 mmHg 61%
    14:00 +30°C° 0 mm 3 m/s 758 mmHg 61%
    15:00 +30°C° 0 mm 3 m/s 758 mmHg 61%
    16:00 +30°C° 0 mm 3 m/s 757 mmHg 61%
    17:00 +29°C° 0 mm 3 m/s 758 mmHg 70%
    18:00 +27°C° 0 mm 3 m/s 758 mmHg 78%
    19:00 +25°C° 0 mm 3 m/s 759 mmHg 87%
    20:00 +24°C° 0 mm 2 m/s 759 mmHg 90%
    21:00 +24°C° 0 mm 2 m/s 760 mmHg 93%
    22:00 +23°C° 0 mm 2 m/s 760 mmHg 96%
    23:00 +23°C° 0 mm 2 m/s 760 mmHg 95%

    19 Dezembro, Quarta-feira

    Tempo Temperatura Precipitação Vento Pressão Humidade
    00:00 +23°C° 0 mm 2 m/s 760 mmHg 95%
    01:00 +22°C° 0 mm 3 m/s 760 mmHg 95%
    02:00 +22°C° 0.1 mm 3 m/s 760 mmHg 95%
    03:00 +22°C° 0.1 mm 3 m/s 760 mmHg 94%
    04:00 +22°C° 0.1 mm 4 m/s 760 mmHg 94%
    05:00 +22°C° 0.1 mm 4 m/s 760 mmHg 94%
    06:00 +22°C° 0.1 mm 4 m/s 760 mmHg 94%
    07:00 +22°C° 0.1 mm 3 m/s 760 mmHg 93%
    08:00 +22°C° 0.1 mm 3 m/s 760 mmHg 92%
    09:00 +22°C° 0.1 mm 3 m/s 760 mmHg 92%
    10:00 +22°C° 0.1 mm 3 m/s 760 mmHg 91%
    11:00 +25°C° 0.1 mm 3 m/s 760 mmHg 84%
    12:00 +26°C° 0.1 mm 3 m/s 759 mmHg 77%
    13:00 +28°C° 0.1 mm 3 m/s 759 mmHg 69%
    14:00 +27°C° 0 mm 3 m/s 758 mmHg 71%
    15:00 +27°C° 0 mm 3 m/s 758 mmHg 72%
    16:00 +27°C° 0 mm 3 m/s 758 mmHg 73%
    17:00 +26°C° 0.5 mm 3 m/s 758 mmHg 80%
    18:00 +25°C° 0.5 mm 4 m/s 758 mmHg 87%
    19:00 +23°C° 0.5 mm 4 m/s 758 mmHg 94%
    20:00 +22°C° 0.8 mm 4 m/s 758 mmHg 95%
    21:00 +22°C° 0.8 mm 3 m/s 758 mmHg 96%
    22:00 +22°C° 0.8 mm 3 m/s 758 mmHg 97%
    23:00 +22°C° 1.6 mm 3 m/s 758 mmHg 97%

    20 Dezembro, Quinta-feira

    Tempo Temperatura Precipitação Vento Pressão Humidade
    00:00 +23°C° 1.6 mm 2 m/s 757 mmHg 97%
    01:00 +23°C° 1.6 mm 2 m/s 757 mmHg 98%
    02:00 +23°C° 0.4 mm 2 m/s 756 mmHg 98%
    03:00 +23°C° 0.4 mm 1 m/s 756 mmHg 98%
    04:00 +23°C° 0.4 mm 1 m/s 756 mmHg 98%
    05:00 +24°C° 0.2 mm 1 m/s 756 mmHg 95%
    06:00 +25°C° 0.2 mm 1 m/s 755 mmHg 92%
    07:00 +26°C° 0.2 mm 1 m/s 755 mmHg 88%
    08:00 +30°C° 0 mm 2 m/s 755 mmHg 73%
    09:00 +34°C° 0 mm 3 m/s 755 mmHg 58%
    10:00 +37°C° 0 mm 3 m/s 754 mmHg 43%
    11:00 +40°C° 0 mm 4 m/s 753 mmHg 38%
    12:00 +42°C° 0 mm 5 m/s 752 mmHg 33%
    13:00 +43°C° 0 mm 5 m/s 751 mmHg 28%
    14:00 +44°C° 0 mm 6 m/s 751 mmHg 26%
    15:00 +44°C° 0 mm 6 m/s 750 mmHg 25%
    16:00 +45°C° 0 mm 6 m/s 749 mmHg 24%
    17:00 +41°C° 0 mm 5 m/s 749 mmHg 29%
    18:00 +39°C° 0 mm 5 m/s 749 mmHg 34%
    19:00 +35°C° 0 mm 4 m/s 749 mmHg 39%
    20:00 +34°C° 0 mm 4 m/s 749 mmHg 40%
    21:00 +33°C° 0 mm 4 m/s 750 mmHg 41%
    22:00 +32°C° 0 mm 4 m/s 750 mmHg 42%
    23:00 +29°C° 0.1 mm 5 m/s 751 mmHg 52%

    21 Dezembro, Sexta-feira

    Tempo Temperatura Precipitação Vento Pressão Humidade
    00:00 +27°C° 0.1 mm 5 m/s 751 mmHg 62%
    01:00 +25°C° 0.1 mm 5 m/s 752 mmHg 72%
    02:00 +23°C° 0 mm 5 m/s 753 mmHg 77%
    03:00 +22°C° 0 mm 5 m/s 753 mmHg 81%
    04:00 +21°C° 0 mm 4 m/s 753 mmHg 86%
    05:00 +22°C° 0 mm 4 m/s 754 mmHg 81%
    06:00 +23°C° 0 mm 4 m/s 754 mmHg 76%
    07:00 +25°C° 0 mm 4 m/s 755 mmHg 70%
    08:00 +26°C° 0 mm 4 m/s 755 mmHg 65%
    09:00 +27°C° 0 mm 4 m/s 755 mmHg 60%
    10:00 +28°C° 0 mm 3 m/s 755 mmHg 55%
    11:00 +28°C° 0 mm 4 m/s 755 mmHg 56%
    12:00 +28°C° 0 mm 4 m/s 754 mmHg 57%
    13:00 +28°C° 0 mm 4 m/s 754 mmHg 57%
    14:00 +28°C° 0 mm 4 m/s 754 mmHg 59%
    15:00 +27°C° 0 mm 5 m/s 754 mmHg 60%
    16:00 +27°C° 0 mm 5 m/s 753 mmHg 62%
    17:00 +26°C° 0 mm 4 m/s 754 mmHg 67%
    18:00 +24°C° 0 mm 3 m/s 755 mmHg 73%
    19:00 +22°C° 0 mm 3 m/s 755 mmHg 78%
    20:00 +22°C° 0 mm 3 m/s 755 mmHg 80%
    21:00 +21°C° 0 mm 3 m/s 756 mmHg 82%
    22:00 +21°C° 0 mm 3 m/s 756 mmHg 84%
    23:00 +21°C° 0 mm 3 m/s 755 mmHg 85%
    Mostrar mais